Location: Barnston
(51.8500°N, 0.4000°E)
Time: 04:58:37
(UTC+00:00)

SL-16 R/B - Visible Passes

Search period start: 16 April 2024 00:00
Search period end: 26 April 2024 00:00
Orbit: 842 x 845 km, 71.0° (Epoch: 15 April)

Date Brightness Start Highest point End Pass type
(mag) Time Alt. Az. Time Alt. Az. Time Alt. Az.
16 Apr 2.5 00:06:27 56° E 00:06:27 56° E 00:11:33 10° NE visible
16 Apr 3.4 01:48:17 26° W 01:50:24 34° NW 01:55:35 10° NNE visible
16 Apr 4.5 03:33:31 10° NW 03:36:21 14° NNW 03:39:10 10° N visible
16 Apr 2.5 23:51:59 54° E 23:51:59 54° E 23:57:03 10° NE visible
17 Apr 3.3 01:33:49 27° W 01:35:54 35° NW 01:41:06 10° NNE visible
17 Apr 4.5 03:18:55 10° NW 03:21:47 14° NNW 03:24:41 10° N visible
17 Apr 2.5 23:37:30 52° E 23:37:30 52° E 23:42:33 10° NE visible
18 Apr 3.3 01:19:19 28° W 01:21:23 36° NW 01:26:36 10° NNE visible
18 Apr 4.5 03:04:18 10° NW 03:07:15 14° NNW 03:10:12 10° N visible
18 Apr 2.5 23:22:57 51° E 23:22:57 51° E 23:28:02 10° NE visible
19 Apr 3.3 01:04:46 28° W 01:06:51 37° NW 01:12:08 10° NNE visible
19 Apr 4.6 02:49:42 10° NW 02:52:43 14° NNW 02:55:43 10° N visible
19 Apr 2.5 23:08:22 50° E 23:08:22 50° E 23:13:33 10° NE visible
20 Apr 3.3 00:50:11 28° W 00:52:21 38° NW 00:57:39 10° NNE visible
20 Apr 4.6 02:35:06 10° NW 02:38:10 15° NNW 02:41:14 10° NNE visible
20 Apr 2.5 22:53:44 48° ESE 22:53:44 48° ESE 22:59:02 10° NE visible
21 Apr 3.3 00:35:33 28° W 00:37:50 39° NW 00:43:10 10° NNE visible
21 Apr 4.6 02:20:30 10° NW 02:23:37 15° NNW 02:26:46 10° NNE visible
21 Apr 4.9 04:08:53 10° N 04:10:26 11° N 04:11:58 10° NNE visible
21 Apr 2.5 22:39:03 47° ESE 22:39:06 47° ESE 22:44:32 10° NE visible
22 Apr 3.2 00:20:52 27° W 00:23:19 40° NW 00:28:41 10° NNE visible
22 Apr 4.6 02:05:53 10° WNW 02:09:04 15° NNW 02:12:16 10° NNE visible
22 Apr 4.9 03:54:22 10° N 03:55:52 11° N 03:57:23 10° NNE visible
22 Apr 2.5 22:24:17 45° ESE 22:24:38 45° ESE 22:30:01 10° NE visible
23 Apr 3.2 00:06:05 25° WSW 00:08:49 41° NW 00:14:12 10° NNE visible
23 Apr 4.6 01:51:18 10° WNW 01:54:32 15° NNW 01:57:47 10° NNE visible
23 Apr 5.0 03:39:50 10° N 03:41:19 11° N 03:42:48 10° NNE visible
23 Apr 2.5 22:09:26 42° SE 22:10:09 44° ESE 22:15:30 10° NE visible
23 Apr 3.2 23:51:14 23° WSW 23:54:18 42° NW 23:59:43 10° NNE visible
24 Apr 4.7 01:36:41 10° WNW 01:40:00 15° NNW 01:43:18 10° NNE visible
24 Apr 5.0 03:25:19 10° N 03:26:46 11° N 03:28:13 10° NNE visible
24 Apr 2.6 21:54:29 37° SE 21:55:40 42° ESE 22:00:59 10° NE visible
24 Apr 3.2 23:36:16 20° WSW 23:39:47 44° NW 23:45:14 10° NNE visible
25 Apr 4.7 01:22:05 10° WNW 01:25:27 16° NNW 01:28:49 10° NNE visible
25 Apr 5.1 03:10:47 10° NNW 03:12:13 11° N 03:13:39 10° NNE visible
25 Apr 2.6 21:39:22 32° SSE 21:41:12 41° ESE 21:46:29 10° NE visible
25 Apr 3.1 23:21:09 17° WSW 23:25:17 45° NW 23:30:45 10° NNE visible
